DMSP 5D-2 F13 DEB, 42271

Orbit data source: Space-Track

DMSP 5D-2 F13 DEB, 42271 is space debris in SSO originally from a launch on Fri, 24 Mar 1995 UTC launched from the Air Force Western Test Range (AFWTR). Debris objects in space refer to the collection of defunct objects orbiting the Earth. Examples of debris include non-operational satellites, rocket bodies, and fragments generated from explosions, collisions, or faulty payload assembly.

Loading next visibility...
Identifier
42271, 1995-015GM
Orbit
SSO
Country
Flag of USUS
Related business
Manufacturer
Unknown
Mission
Spacecraft
Bus & Motor
Unknown
Mass
Unknown
Launch date (UTC)
1995-03-24 (31 years ago)
Launch vehicle
Unknown
Launch site
Air Force Western Test Range (AFWTR)
Object type
Payload
Rocket body
Debris
Shape & HBR
Unknown shape, 0.1 m
Radar Cross Section
Small (<0.1 m²)

Expand to show TLE details & history
Last TLE update: 4 days ago

TLE from 4 days ago
0 DMSP 5D-2 F13 DEB
1 42271U 95015GM  25337.92464628  .00073866  00000-0  11197-1 0  9997
2 42271  98.6870  40.5152 0003771 202.3385 157.7657 14.73722051543343
Epoch: 2025-12-03T22:11Z
TLE epoch observation values (Epoch: 2025-12-03T22:11:29.438Z)
Latitude
-0.00007°
Longitude
-5.34591°
Altitude
654.653 km
Speed
7.529 km/s
True Right ascension
02h 42m 03s
True Declination
0° 00' 00"
Sunlit
Object was in full shadow at epoch
Visualization orbit readout
Latitude
Unknown
Longitude
Unknown
Altitude
Unknown
Speed
Unknown
Apparent Right ascension
Unknown
Apparent Declination
Unknown
Sunlit
N/A
Visualization observer readout
Local Sidereal Time
13:32:20
Azimuth
Unknown
Elevation
Unknown
Doppler factor
Unknown
Orbital elements
Apogee altitude
648.946 km
Perigee altitude
643.648 km
Semi-major axis
7,024.434 km
Eccentricity
0.00038
Inclination
98.687°
RAAN
40.5152°
Arg. of periapsis
202.3385°
True anomaly
157.78204°
Mean anomaly
157.7657°
Eccentric anomaly
157.77387°
Mean motion
3.6866 °/min
Orbital period
97.65 mins
BSTAR
0.011197
Loading maneuver chart data...
Computing Atmospheric mass density...

Documentation

Showing up to 5 results
|